Location: Chattannavaram
(16.7805°N, 80.4222°E)
Time: 17:04:13
(UTC+00:00)

Daily predictions for brighter satellites

Satellite Brightness Start Highest point End
(mag) Time Altitude Azimuth Time Altitude Azimuth Time Altitude Azimuth
Meteor 1-12 Rocket 4.4 13:29:10 10° N 13:34:42 57° E 13:40:13 10° SSE
Cosmos 1943 4.2 13:34:58 10° SSE 13:39:31 25° ESE 13:44:03 10° NE
Ariane H10+ 4.0 13:37:08 10° SW 13:39:52 18° S 13:43:23 10° SE
GPS 2-04 Rocket1 4.4 13:37:19 10° W 13:40:32 24° SW 13:43:39 10° SSE
Cosmos 1733 4.2 13:38:12 10° NNW 13:41:49 49° W 13:45:28 10° S
DASH 3.4 13:32:48 10° WNW 13:44:47 69° NNE 13:47:55 10° ESE
Cosmos 1943 Rocket 3.9 13:45:11 10° NNE 13:48:14 15° ENE 13:51:16 10° E
Cosmos 1626 3.3 13:45:38 10° SE 13:48:32 23° E 13:51:25 10° NE
GPS 2-14 Rocket1 2.7 13:45:09 10° WSW 13:49:11 65° SSE 13:53:12 10° E
H-2A R/B 4.4 13:49:26 10° E 13:50:19 11° ENE 13:51:11 10° ENE
Cosmos 1707 2.6 13:47:14 10° S 13:51:01 66° E 13:54:47 10° NNE
CZ-4B R/B 3.6 13:45:43 10° S 13:51:12 69° WSW 13:56:48 10° NNW
GPS 2-17 Rocket1 3.8 13:48:31 10° SW 13:52:29 32° SSE 13:56:21 11° E
Cosmos 1766 3.2 13:49:11 10° N 13:53:06 88° E 13:56:59 10° S
Meteor 1-15 Rocket 4.3 13:48:47 10° N 13:54:42 73° E 14:00:34 10° SSE
Cosmos 494 Rocket 4.0 13:55:03 10° NNW 14:00:14 89° WSW 14:05:27 10° SSE
Cosmos 1048 Rocket 4.1 13:56:46 10° NNW 14:01:55 77° WSW 14:07:06 10° S
YAOGAN 1 3.0 13:58:06 10° S 14:02:21 63° WSW 14:06:38 10° NNW
Cosmos 1242 Rocket 3.4 14:03:32 10° NNE 14:06:27 27° E 14:07:53 20° ESE
In-Cosmos 22 4.0 14:01:40 10° S 14:07:01 85° E 14:12:18 10° N
Cosmos 405 Rocket 2.7 14:03:31 10° S 14:07:22 63° E 14:11:18 10° NNE
ATLAS V CENTAUR R/B 3.1 14:07:57 10° WSW 14:09:32 21° SSW 14:10:01 19° SSE
Cosmos 1241 Rocket 4.5 14:05:07 10° SSW 14:11:17 84° WNW 14:17:29 10° NNE
USA 267 3.2 14:05:48 10° NE 14:12:17 68° SE 14:18:46 10° SSW
Cosmos 292 Rocket 3.7 14:08:39 10° S 14:13:22 69° ESE 14:18:05 10° NNE
Cosmos 1782 Rocket 3.6 14:11:27 10° N 14:15:55 90° WNW 14:20:22 10° S
OBJECT-B 0.3 14:14:36 21° SSE 14:16:20 73° ENE 14:19:09 10° N
deb Chang Zheng 4 3.7 14:15:55 19° SE 14:18:41 51° ENE 14:22:44 10° N
Lacrosse 4 Rocket 2.1 14:18:20 10° SSW 14:22:31 56° WNW 14:26:37 10° N
Cosmos 1470 2.6 14:21:47 10° N 14:25:40 80° E 14:28:19 20° S
CZ-4 R/B 3.0 14:24:30 10° SSW 14:28:19 35° W 14:32:08 10° NNW
H-2A R/B 2.2 14:24:08 10° NNE 14:28:29 55° ESE 14:32:15 14° S
Cosmos 2221 Rocket 3.5 14:24:50 10° S 14:29:15 90° WSW 14:33:42 10° N
Okean-O 2.6 14:27:53 23° SSE 14:30:32 67° ENE 14:34:55 10° N
Okean 2 Rocket 4.1 14:28:32 10° NNE 14:32:16 27° E 14:32:26 27° E
Cosmos 2369 Rocket 4.1 14:30:23 10° NE 14:32:22 12° ENE 14:32:39 12° ENE
Cosmos 1553 Rocket 4.1 14:28:26 10° S 14:34:31 57° E 14:40:42 10° NNE
OAO 2 Rocket 3.9 14:29:29 10° WNW 14:34:36 52° SW 14:37:07 28° SSE
CSL-04 Rocket 3.6 14:35:15 21° SSE 14:38:56 79° ENE 14:44:26 10° N
Delta 202 4.1 14:33:59 10° SW 14:39:10 45° SSE 14:41:38 31° ESE
X-37B 2.2 14:37:20 10° WSW 14:39:51 31° NW 14:42:23 10° NNE
GRACE-FO 1 4.5 14:37:04 10° N 14:40:45 69° E 14:41:34 49° SSE
GRACE-FO 2 4.5 14:37:29 10° N 14:41:10 71° E 14:41:59 50° SSE
SEDSat Delta rocket 4.1 14:38:28 10° W 14:41:59 27° SSW 14:42:55 25° S
SJ-6B 2.6 14:41:08 40° S 14:42:22 88° W 14:46:07 10° NNW
Okean O Rocket 4.3 14:41:00 10° SW 14:43:38 16° W 14:46:18 10° WNW
Cosmos 2278 Rocket 4.1 14:39:03 10° NW 14:43:41 27° WSW 14:48:20 10° SSW
Cosmos 1378 Rocket 3.5 14:42:00 20° S 14:45:05 88° E 14:49:31 10° N
Hubble Space Telescope 3.0 14:44:09 10° NW 14:47:05 19° N 14:49:07 14° NE
COBE Rocket 3.8 14:44:19 25° S 14:47:09 78° W 14:51:48 10° NNW
S3M 4.4 14:46:28 35° SE 14:48:11 42° E 14:53:57 10° NNE
Cosmos 1674 Rocket 3.6 14:47:06 19° SSW 14:50:10 73° W 14:54:28 10° N
SL-08 ROCKET BODY 4.4 14:44:26 10° N 14:50:21 62° E 14:52:45 36° SSE
Landsat 7 4.0 14:51:04 47° E 14:51:37 50° ENE 14:56:09 10° N
OAO 3 Copernicus 4.4 14:47:20 10° NW 14:52:24 69° NNE 14:53:38 49° E
Spot 2 4.0 14:51:40 56° SE 14:52:29 74° ENE 14:56:58 10° N
Iridium 4 Rocket 3.7 14:47:12 10° N 14:53:05 77° E 14:55:49 33° S
CZ-2C R/B 1.7 14:49:31 10° NW 14:53:22 44° NNE 14:53:36 44° NE
Intercosmos 25 3.3 14:50:19 10° N 14:53:20 60° ENE 14:53:20 60° ENE
Longmarch 3A Rocket 3.9 14:52:46 10° NNW 14:54:20 14° NNE 14:55:18 13° NE
Atlas Centaur 2 4.1 14:53:50 10° NW 14:56:17 14° N 14:58:32 10° NNE
IRS-1C Rocket 4.4 14:53:27 24° S 14:56:38 64° WSW 15:01:49 10° NNW
Meteor 2-17 Rocket 4.4 14:50:41 10° N 14:56:45 87° W 15:00:08 28° S
MetOp-A 3.1 14:56:55 77° SE 14:57:09 84° E 15:01:15 10° N
Cosmos 1244 Rocket 4.4 14:54:22 10° N 15:00:25 61° E 15:01:57 47° SE
Cosmos 1269 Rocket 3.9 14:56:21 10° N 15:01:37 67° ENE 15:02:22 59° ESE
Yuri Rocket 4.4 15:03:12 10° W 15:07:10 38° NNW 15:10:10 19° NE
Cosmos 1437 Rocket 3.4 15:03:34 10° N 15:06:34 47° NNE 15:06:34 47° NNE
Cosmos 1758 3.6 15:03:49 10° NNW 15:07:50 64° W 15:08:03 62° WSW
Cosmos 1238 Rocket 3.9 15:02:23 10° N 15:08:10 58° E 15:08:55 54° ESE
USA 186 4.3 15:08:37 14° W 15:08:37 14° W 15:09:57 10° WNW
Cosmos 1607 3.8 15:07:31 42° S 15:09:32 62° ESE 15:15:40 10° NNE
Milstar 3 4.3 15:00:32 10° SW 15:09:49 50° SE 15:27:26 10° ENE
Cosmos 2297 3.5 15:04:35 10° NNW 15:10:16 75° ENE 15:11:00 65° SE
SPOT 1/Viking Rocket 4.3 15:12:10 37° NE 15:12:10 37° NE 15:16:07 10° N
SL-14 R/B 4.2 15:16:20 44° W 15:16:23 44° W 15:20:04 10° N
CZ-3A R/B 4.1 15:07:55 10° SW 15:16:28 28° SSW 15:16:28 28° SSW
Gblst 52 Del rocket 4.5 15:16:45 10° NNW 15:23:01 55° NE 15:23:12 55° ENE
H-2A R/B 4.1 15:25:09 26° WSW 15:25:25 27° W 15:28:42 10° NW
IRS-1A Rocket 4.3 15:25:45 67° ENE 15:25:45 67° ENE 15:31:30 10° N
CZ-4B R/B 4.1 15:23:19 10° NNW 15:23:59 14° NNW 15:23:59 14° NNW
GPS 2-14 Rocket1 4.3 15:25:52 10° W 15:28:18 33° WNW 15:28:18 33° WNW
Cosmos 1943 Rocket 3.0 15:26:43 10° NW 15:31:58 42° WSW 15:33:03 38° SW
GEOS 3 Rocket 3.8 15:32:19 61° WSW 15:32:19 61° WSW 15:37:14 10° NW
Cosmos 1745 Rocket 4.4 15:28:19 10° N 15:33:06 47° NE 15:33:06 47° NE
Ariane Rocket 3.9 15:41:49 43° N 15:41:49 43° N 15:45:14 10° N
ATLAS 3B CENTAUR R/B 4.0 15:32:29 10° WNW 15:45:38 54° N 15:49:16 37° ENE
Cosmos 2315 Rocket 4.2 15:50:49 63° NNE 15:50:49 63° NNE 15:56:01 10° N
Resurs 01 Rocket 3.4 15:54:19 30° NW 15:54:19 30° NW 15:56:49 10° NNW
Centaur D AC-28 4.1 15:24:28 10° WNW 16:13:03 50° SW 16:14:08 49° SSW
Cosmos 2369 Rocket 3.5 16:10:59 10° NNW 16:14:27 36° NW 16:14:27 36° NW
SL-16 R/B 3.9 20:53:08 33° N 20:53:08 33° N 20:56:24 10° N
Cosmos 2360 Rocket 4.0 20:49:06 10° N 20:52:00 27° NNE 20:52:00 27° NNE
Cosmos 2297 Rocket 3.8 21:04:40 29° ENE 21:04:40 29° ENE 21:08:14 10° NE
NOSS 3-2 (C) 4.4 21:14:31 36° NE 21:14:31 36° NE 21:17:46 10° NNE
CENTAUR R/B 3.6 21:15:27 32° N 21:15:27 32° N 21:18:45 10° NNE
Delta 2 Rocket 4.5 21:23:19 83° WNW 21:23:34 85° NNW 21:33:00 10° ENE
USA 238 DEB 3.6 21:31:25 68° N 21:31:25 68° N 21:37:01 10° NNE
USA 238 3.6 21:31:32 69° N 21:31:32 69° N 21:37:09 10° NNE
Cosmos 2219 Rocket 3.5 21:32:16 10° N 21:37:28 37° ENE 21:42:38 10° SE
Cosmos 2333 Rocket 2.4 21:39:41 10° N 21:45:24 68° ENE 21:46:21 57° ESE
ALOS 2.6 21:51:07 10° NNE 21:54:58 61° NNE 21:54:58 61° NNE
SWIFT 3.4 21:59:03 42° NE 21:59:03 42° NE 22:02:14 10° ENE
Cosmos 990 Rocket 4.3 21:56:12 10° NNW 22:00:12 55° NNW 22:00:12 55° NNW
MOS 1-B Rocket 3.9 22:01:05 49° S 22:02:55 84° WSW 22:09:46 10° NNW
CZ-2D R/B 4.3 22:01:11 10° NNE 22:05:10 44° E 22:05:39 42° ESE
Ariane H10+ 4.5 22:02:57 31° SSW 22:05:31 33° S 22:25:51 10° ESE
Helios 1B rocket 4.1 22:02:26 10° N 22:04:26 26° NNW 22:04:26 26° NNW
ARIANE 5 R/B 2.5 22:01:43 10° NNE 22:06:44 76° ESE 22:07:31 62° SSE
Cosmos 1500 Rocket 4.1 22:06:26 51° ESE 22:06:55 54° E 22:11:12 10° NNE
Cosmos 1666 3.8 22:08:58 37° ESE 22:09:19 38° E 22:12:49 10° NNE
FUSE 3.7 22:09:44 77° SSW 22:10:03 83° SSE 22:15:27 10° ENE
METEOR-M 4.2 22:06:18 10° NNE 22:11:37 71° ESE 22:13:21 43° S
Meteor 1-27 Rocket 4.3 22:06:37 10° N 22:12:05 55° E 22:17:27 10° SSE
IRS-1C 4.0 22:08:31 10° N 22:13:48 72° WNW 22:14:30 63° SW
Cosmos 1898 Rocket 3.4 22:09:37 10° NNW 22:14:47 87° ENE 22:17:15 32° SSE
Cosmos 2227 Rocket 2.1 22:15:01 60° SW 22:15:55 72° WNW 22:21:35 10° NNE
CZ-2C R/B 2.4 22:11:50 10° N 22:15:53 53° NW 22:15:53 53° NW
Cosmos 2208 Rocket 4.0 22:18:06 59° SW 22:18:59 71° WNW 22:24:24 10° N
Cosmos 1500 3.9 22:19:59 45° NNW 22:19:59 45° NNW 22:22:45 10° N
Cosmos 2333 4.3 22:13:56 10° NNW 22:19:22 50° W 22:19:22 50° W
Cosmos 1570 Rocket 4.2 22:20:19 48° WNW 22:20:23 48° WNW 22:25:25 10° N
Meteor 1-20 Rocket 4.2 22:21:02 52° WSW 22:21:55 58° W 22:27:24 10° N
Cosmos 1725 Rocket 4.2 22:20:15 10° NNW 22:26:02 44° W 22:26:53 41° WSW
Envisat 4.4 22:24:27 10° NE 22:29:04 35° E 22:33:40 10° SSE
GPS 2-17 Rocket1 4.4 22:30:55 26° S 22:30:55 26° S 22:33:48 10° SE
Cosmos 2061 Rocket 4.4 22:23:59 10° NNW 22:30:00 44° W 22:31:37 37° SW
Meteor 1-10 Rocket 4.5 22:25:52 10° NNW 22:31:29 49° W 22:33:09 38° SW
Cosmos 2219 3.3 22:31:37 42° WSW 22:33:12 56° WNW 22:38:44 10° N
COSMOS 2428 2.6 22:27:48 10° NNW 22:33:32 89° E 22:39:14 10° SSE
Intelsat 5-1 Rocket 2.4 22:34:14 29° NNE 22:34:14 29° NNE 22:36:02 10° NE
Cosmos 2346 Rocket 4.4 22:31:17 20° S 22:35:40 88° E 22:41:45 10° N
Cosmos 2233 Rocket 4.0 22:31:30 10° NNW 22:37:30 59° W 22:41:41 20° SSW
Cosmos 1937 Rocket 3.3 22:32:19 10° NNW 22:37:32 78° WSW 22:42:40 10° S
CZ-3C R/B 3.4 22:35:16 24° WNW 22:38:24 73° N 23:14:22 10° E
Cosmos 2263 Rocket 3.7 22:39:43 10° SSE 22:44:42 33° ESE 22:49:39 10° NE
X-37B 3.7 22:43:32 10° N 22:45:07 14° NE 22:46:42 10° ENE
Meteor 1-29 3.7 22:42:32 10° N 22:45:14 33° WNW 22:45:14 33° WNW
Cosmos 2297 Rocket 3.6 22:46:29 19° WNW 22:47:11 20° WNW 22:51:12 10° NNW
CZ-2C R/B 3.6 22:44:15 10° NNE 22:48:05 51° E 22:51:46 11° S
USA 290 3.7 22:45:37 10° NNW 22:47:14 24° NW 22:47:14 24° NW
CZ-4B R/B 4.1 22:47:45 10° NNE 22:52:44 55° ESE 22:57:34 10° S
Cosmos 1315 Rocket 3.0 22:49:34 16° S 22:52:48 75° E 22:56:49 10° N
Cosmos 2237 Rocket 3.6 22:49:53 10° N 22:55:09 40° ENE 23:00:23 10° SE
Cosmos 2322 4.2 22:50:23 10° NW 22:55:28 35° WSW 23:00:33 10° SSW
Cosmos 1805 Rocket 3.7 22:54:37 25° SSW 22:56:56 52° W 23:01:15 10° N
NOSS 0 Rocket 4.1 22:52:07 10° NNW 22:58:16 77° ENE 23:04:23 10° SSE
ARIANE 5 R/B 4.4 22:56:00 10° S 22:58:38 14° SSE 23:03:47 10° ESE
Cosmos 1743 Rocket 4.4 22:57:33 27° WSW 22:58:44 31° W 23:02:40 10° NNW
Cosmos 1515 Rocket 3.8 22:54:56 10° NNW 22:59:07 47° W 23:02:27 15° SSW
IRIDIUM 104 4.4 22:55:24 16° SSW 22:59:26 56° W 23:04:32 10° N
Meteor 1-5 Rocket 4.1 22:55:47 10° S 23:01:17 83° W 23:06:39 10° N
Cosmos 1666 Rocket 4.3 22:57:05 10° S 23:01:19 53° E 23:05:37 10° NNE
Cosmos 44 Rocket 3.7 23:02:46 22° SW 23:05:34 46° WNW 23:10:14 10° N
Aurora 2 Rocket 2.7 23:04:57 10° WNW 23:07:54 43° NNE 23:11:03 10° E
Cosmos 1513 Rocket 4.4 23:05:49 10° N 23:11:54 86° W 23:18:00 10° S
Meteor 2-13 Rocket 4.4 23:06:15 10° SSW 23:12:18 67° W 23:18:23 10° N
CZ-4C R/B 3.6 23:15:04 10° SSE 23:19:16 81° ENE 23:23:36 10° N
Sich 1 3.8 23:17:03 14° SW 23:20:10 32° W 23:24:02 10° NNW
Cosmos 2219 Rocket 3.6 23:17:29 10° WNW 23:21:01 17° WSW 23:24:35 10° SW
Cosmos 1484 Rocket 4.3 23:18:52 10° NNW 23:21:43 20° WNW 23:23:41 14° WSW
COSMOS 2455 4.1 23:18:09 10° N 23:23:52 45° ENE 23:29:33 10° SE
SJ-12 4.0 23:22:32 10° NNE 23:26:39 81° E 23:30:46 10° S
CZ-2C R/B 2.9 23:22:05 10° NNE 23:27:00 88° ESE 23:31:44 10° SSW
Landsat 4 3.8 23:24:05 10° N 23:27:40 53° WNW 23:31:18 10° SSW
Cosmos 389 Rocket 2.7 23:25:08 10° S 23:28:34 69° E 23:32:02 10° NNE
Cosmos 2098 Rocket 4.2 23:27:59 13° WSW 23:29:27 16° W 23:31:30 10° NW
ATLAS CENTAUR R/B 2.5 23:25:56 10° S 23:30:06 49° ESE 23:34:34 10° NE
YAOGAN 6 3.8 23:27:12 10° NNW 23:30:09 24° WNW 23:33:04 10° SW
Timation 2 Rocket 4.1 23:24:17 10° SSW 23:30:12 59° WNW 23:36:23 10° N
ATLAS 3B R/B 3.8 23:24:27 10° S 23:30:20 40° ESE 23:36:20 10° NE
Cosmos 773 Rocket 4.0 23:25:33 10° SSW 23:30:49 84° WNW 23:36:04 10° NNE
PSLV R/B 4.1 23:27:42 10° N 23:31:36 38° WNW 23:35:27 10° SW
Cosmos 2034 Rocket 4.2 23:26:11 10° N 23:32:23 79° E 23:38:31 10° S
Meteor 1-11 Rocket 4.4 23:28:08 10° S 23:33:59 64° E 23:39:52 10° NNE
Cosmos 371 Rocket 4.2 23:32:20 10° N 23:37:02 54° ENE 23:41:44 10° SSE
Milstar 3 Cent rocket 3.4 23:34:09 10° SW 23:39:04 45° SE 23:47:18 10° ENE
GPS 2-15 Rocket1 4.3 23:35:09 10° SW 23:39:20 31° SSE 23:43:28 10° E
Cosmos 1707 Rocket 4.3 23:35:19 10° N 23:39:39 58° E 23:44:00 10° SSE
SWIFT 2.9 23:36:05 10° WNW 23:40:09 56° N 23:44:15 10° E
MINOTAUR 4 R/B 4.2 23:39:05 10° S 23:42:28 47° W 23:45:51 10° NNW
NOAA 11 4.2 23:38:49 10° N 23:44:11 71° WNW 23:49:34 10° SSW
Cosmos 1536 3.0 23:41:59 10° S 23:45:57 77° E 23:49:58 10° N
